Flag for U.S.A. Weather past 2 weeks in Monticello, Kentucky, U.S.A.

Now
27 °F

Sunny.


Feels Like: 23 °F
Forecast: 8 / 33 °F
Wind: 3 mph from North

Location: London-Corbin Airport-Magee Field

Current Time: Mar 6, 2015 at 3:10:09 PM

Latest Report: Mar 6, 2015 at 1:53 PM


Visibility: 10 mi

Pressure: 30.53 "Hg

Humidity: 42%

Dew point: 7 °F

Location of MonticelloLocation

Historic Weather in Monticello — Graph

°F

Monticello temperature yesterday

Maximum temperature yesterday: 33 °F (at 12:53 AM)
Minimum temperature yesterday: 8 °F (at 11:53 PM)
Average temperature yesterday: 22 °F

Past Weeks' High & Low Weather Summary

 TemperatureHumidityPressure
High62 °F (Mar 4, 2:53 AM)93% (Mar 4, 12:01 PM)30.67 "Hg (Mar 4, 12:01 PM)
Low-16 °F (Feb 20, 6:53 AM)24% (Feb 20, 4:53 PM)29.79 "Hg (Feb 26, 2:02 AM)
Average30 °F64%30.24 "Hg
* Reported Feb 19 1:53 PM — Mar 6 1:53 PM, Monticello, Weather by CustomWeather, © 2015

Note: Actual official high and low records may vary slightly from our data, if they occured in-between our weather recording intervals... More about our weather records

Advertising

Monticello weather history for previous 24 hours

 ConditionsComfort  
Time TempWeatherWind HumidityBarometerVisibility
1:53 PM
Fri, Mar 6
27 °FSunny.3 mph42%30.53 "Hg10 mi
12:53 PM24 °FSunny.5 mph50%30.55 "Hg10 mi
11:53 AM24 °FSunny.5 mph55%30.56 "Hg10 mi
10:53 AM22 °FSunny.No wind60%30.57 "Hg10 mi
9:53 AM19 °FSunny.3 mph81%30.58 "Hg10 mi
8:53 AM13 °FSunny.5 mph77%30.58 "Hg9 mi
7:53 AM5 °FSunny.3 mph76%30.57 "Hg9 mi
6:53 AM3 °FClear.No wind79%30.56 "Hg8 mi
5:53 AM4 °FClear.No wind69%30.56 "Hg10 mi
4:53 AM5 °FClear.No wind72%30.55 "Hg8 mi
3:53 AM6 °FClear.No wind69%30.54 "Hg9 mi
2:53 AM6 °FClear.3 mph76%30.54 "Hg8 mi
1:53 AM7 °FClear.3 mph76%30.54 "Hg9 mi
12:53 AM7 °FClear.No wind73%30.54 "Hg9 mi
11:53 PM
Thu, Mar 5
8 °FClear.No wind72%30.55 "Hg9 mi
10:53 PM11 °FClear.No wind77%30.54 "Hg6 mi
9:53 PM12 °FClear.No wind73%30.54 "Hg9 mi
8:53 PM13 °FClear.No wind77%30.53 "Hg9 mi
7:53 PM17 °FPassing clouds.No wind70%30.51 "Hg10 mi
6:53 PM19 °FOvercast.3 mph68%30.49 "Hg10 mi
5:53 PM20 °FPartly sunny.10 mph65%30.46 "Hg10 mi
4:53 PM20 °FLight snow. Mostly cloudy.10 mph71%30.42 "Hg10 mi
3:53 PM20 °FLight snow. Mostly cloudy.12 mph74%30.38 "Hg3 mi
Weather by CustomWeather, © 2015

See weather overviewHow to use our weather pages